Location: North Evanston
(42.0634°N, 87.6976°W)
Time: 21:02:58
(UTC+00:00)

Transit 2A - Pass Details

Date: 18 May 2026
Orbit: 595 x 948 km, 66.7° (Epoch: 9 June)

Event Time Altitude Azimuth Distance (km) Brightness Sun altitude
Rises 20:10:21 0° 196° (SSW) 3,593 9.8 52.5°
Reaches altitude 10° 20:12:59 10° 192° (SSW) 2,636 9.2 52.0°
Maximum altitude 20:19:00 57° 115° (ESE) 1,051 7.2 51.0°
Drops below altitude 10° 20:24:41 10° 38° (NE) 2,486 8.4 50.0°
Sets 20:27:06 0° 35° (NE) 3,374 9.0 49.6°
